Scottsbluff, NE

9:36 PM MST on January 19, 2018 (GMT -0700)
Heilig

Weather History for KBFF - December, 2001

Change the Weather History Date:

Monday, December 31, 2001

  Actual Average Record
Temperature  
Mean Temperature 15 °F 26 °F  
Max Temperature 30 °F 40 °F 67 °F (1904)
Min Temperature 0 °F 12 °F -30 °F (1923)
Degree Days  
Heating Degree Days 50 39  
Month to date heating degree days 1208  
Since 1 July heating degree days 2772  
Cooling Degree Days 0 0  
Month to date cooling degree days 0  
Year to date cooling degree days 724  
Moisture  
Dew Point 6 °F    
Average Humidity 71    
Maximum Humidity 88    
Minimum Humidity 51    
Precipitation  
Precipitation 0.00 in 0.02 in 0.90 in (1975)
Month to date precipitation 0.51  
Year to date precipitation 15.79  
Snow  
Snow 0.00 in 0.20 in 10.90 in (1975)
Month to date snowfall 7.1  
Since 1 July snowfall 16.0  
Snow Depth -    
Sea Level Pressure  
Sea Level Pressure 30.32 in    
Wind  
Wind Speed 5 mph (North)    
Max Wind Speed 10 mph    
Max Gust Speed -    
Visibility 9 miles    
Events      
T = Trace of Precipitation, MM = Missing Value Source: NWS Daily Summary

Daily Weather History Graph

Daily Weather History Graph

Search for Another Location

Airport or City:

Trip Planner

Search our weather history database for the weather conditions in past years. The results will help you decide how hot, cold, wet, or windy it might be!

Date:

Astronomy

Dec. 31, 2001 Rise Set
Actual Time 7:22 AM MST 4:33 PM MST
Civil Twilight 6:50 AM MST 5:04 PM MST
Nautical Twilight 6:15 AM MST 5:39 PM MST
Astronomical Twilight 5:41 AM MST 6:13 PM MST
Moon 6:04 PM MST (12/31) 8:38 AM MST (12/31)
Length of Visible Light 10h 14m
Length of Day
9h 11m
Full, 98% of the Moon is Illuminated
Dec 31
Full
Jan 5
Last Quarter
Jan 13
New
Jan 21
First Quarter
Jan 28
Full

Hourly Weather History & Observations

Time (MST) Temp. Windchill Dew Point Humidity Pressure Visibility Wind Dir Wind Speed Gust Speed Precip Events Conditions
12:54 AM 8.1 °F 1.4 °F 3.0 °F 80% 30.28 in 10.0 mi WNW 3.5 mph - N/A   Mostly Cloudy
1:54 AM 3.9 °F -5.3 °F -0.0 °F 84% 30.30 in 10.0 mi NNW 4.6 mph - N/A   Mostly Cloudy
2:54 AM 3.9 °F -3.4 °F -0.9 °F 80% 30.29 in 10.0 mi NNE 3.5 mph - N/A   Overcast
3:54 AM 1.0 °F -8.7 °F -2.0 °F 87% 30.30 in 10.0 mi NNW 4.6 mph - N/A   Clear
4:54 AM -0.0 °F -9.9 °F -2.9 °F 88% 30.32 in 10.0 mi NW 4.6 mph - N/A   Clear
5:54 AM -0.0 °F -9.9 °F -6.0 °F 76% 30.34 in 10.0 mi North 4.6 mph - N/A   Clear
6:54 AM -0.0 °F -9.9 °F -4.0 °F 83% 30.37 in 9.0 mi NW 4.6 mph - N/A   Clear
7:54 AM 1.0 °F -10.3 °F -2.0 °F 87% 30.38 in 7.0 mi NW 5.8 mph - N/A   Clear
8:54 AM 9.0 °F -5.1 °F 3.9 °F 80% 30.36 in 8.0 mi NW 10.4 mph - N/A   Clear
9:54 AM 16.0 °F 6.3 °F 9.0 °F 74% 30.32 in 8.0 mi NNW 6.9 mph - N/A   Clear
10:54 AM 21.0 °F 12.4 °F 10.0 °F 63% 30.30 in 9.0 mi NW 6.9 mph - N/A   Clear
11:54 AM 25.0 °F 19.3 °F 12.9 °F 60% 30.26 in 7.0 mi Variable 4.6 mph - N/A   Clear
12:54 PM 28.0 °F - 14.0 °F 56% 30.24 in 7.0 mi Calm Calm - N/A   Clear
1:54 PM 28.9 °F - 14.0 °F 54% 30.23 in 7.0 mi Calm Calm - N/A   Clear
2:54 PM 30.0 °F - 14.0 °F 51% 30.25 in 8.0 mi Calm Calm - N/A   Clear
3:54 PM 28.0 °F - 12.9 °F 53% 30.27 in 7.0 mi Calm Calm - N/A   Clear
4:54 PM 23.0 °F 18.4 °F 10.9 °F 60% 30.30 in 8.0 mi ESE 3.5 mph - N/A   Clear
5:54 PM 21.9 °F 11.7 °F 10.9 °F 63% 30.34 in 10.0 mi ENE 9.2 mph - N/A   Mostly Cloudy
6:54 PM 21.0 °F 9.9 °F 10.0 °F 63% 30.36 in 10.0 mi ENE 10.4 mph - N/A   Overcast
7:54 PM 19.9 °F 11.1 °F 10.0 °F 65% 30.40 in 10.0 mi East 6.9 mph - N/A   Overcast
8:54 PM 19.0 °F 10.0 °F 9.0 °F 65% 30.39 in 10.0 mi East 6.9 mph - N/A   Overcast
9:54 PM 12.9 °F 2.6 °F 6.1 °F 74% 30.40 in 10.0 mi NNE 6.9 mph - N/A   Mostly Cloudy
10:54 PM 10.0 °F 0.4 °F 5.0 °F 80% 30.39 in 10.0 mi NNE 5.8 mph - N/A   Scattered Clouds
11:54 PM 6.1 °F -5.6 °F 1.9 °F 83% 30.40 in 10.0 mi North 6.9 mph - N/A   Clear